Location: Balmoral
(33.0667°S, 151.5833°E)
Time: 01:03:04
(UTC+00:00)

Gblst 52 Del rocket - Pass Details

Date: 18 September 2020
Orbit: 805 x 1365 km, 51.5° (Epoch: 20 October)

Event Time Altitude Azimuth Distance (km) Brightness Sun altitude
Exits shadow 19:13:54 - 305° (NW) 3,214 6.7 -7.8°
Reaches altitude 10° 19:15:28 10° 302° (WNW) 2,632 6.2 -7.5°
Maximum altitude 19:21:31 63° 221° (SW) 960 4.4 -6.2°
Drops below altitude 10° 19:27:05 10° 140° (SE) 2,427 7.3 -5.1°
Sets 19:29:32 0° 136° (SE) 3,346 8.1 -4.6°
